EW7070 Weather Reports


time (UTC)temp
F
wind
direction
speed
knots
gust
knots
rain 1hr
in
rain 24hr
in
rain mn
in
humidity
%
barometer
mb
20260505175312 90 265 0.9 7.0 0.00 0.03 0.01 63 1014.7
20260505174812 90 347 1.7 7.0 0.00 0.03 0.01 63 1014.8
20260505174312 90 320 1.7 6.1 0.00 0.03 0.01 63 1014.7
20260505173747 89 27 1.7 6.1 0.00 0.03 0.01 62 1014.8
20260505173219 89 328 1.7 6.1 0.00 0.03 0.01 62 1014.8
20260505172713 89 335 1.7 5.2 0.00 0.03 0.01 63 1014.9
20260505172211 89 25 1.7 6.1 0.00 0.03 0.01 65 1014.8
20260505171642 89 315 2.6 6.1 0.00 0.03 0.01 63 1014.9
20260505171140 89 264 2.6 5.2 0.00 0.03 0.01 64 1015.1
20260505170630 89 287 2.6 7.0 0.00 0.03 0.01 65 1015.2
20260505170129 89 299 2.6 7.0 0.00 0.03 0.01 64 1015.2
20260505165616 89 42 1.7 6.1 0.00 0.03 0.01 64 1015.1
20260505165118 88 29 1.7 6.1 0.00 0.03 0.01 64 1015.2
20260505164614 88 357 1.7 6.1 0.00 0.03 0.01 64 1015.3
20260505164112 88 289 1.7 6.1 0.00 0.03 0.01 65 1015.4
20260505163559 87 29 3.5 7.0 0.00 0.03 0.01 67 1015.4
20260505163056 87 22 3.5 7.8 0.00 0.03 0.01 66 1015.5
20260505162553 87 316 3.5 7.8 0.00 0.03 0.01 65 1015.6
20260505162310 87 299 4.3 8.7 0.00 0.03 0.01 66 1015.7
20260505161812 87 18 3.5 8.7 0.00 0.03 0.01 67 1015.8
20260505161040 87 341 3.5 7.8 0.00 0.03 0.01 66 1015.8
20260505160539 86 299 3.5 7.8 0.00 0.03 0.01 66 1015.9
20260505152938 85 293 2.6 7.8 0.00 0.03 0.01 69 1016.4
20260505152428 85 343 3.5 7.8 0.00 0.03 0.01 70 1016.4
20260505151904 85 349 2.6 7.8 0.00 0.03 0.01 70 1016.5
20260505151402 84 301 2.6 7.8 0.00 0.03 0.01 70 1016.5
20260505150842 84 348 4.3 9.6 0.00 0.03 0.01 70 1016.6
20260505150337 84 286 4.3 8.7 0.00 0.03 0.01 69 1016.6
20260505140626 82 316 2.6 6.1 0.00 0.03 0.01 72 1017.3
20260505140128 82 305 2.6 7.8 0.00 0.03 0.01 74 1017.2
20260505124825 78 264 0.9 5.2 0.00 0.03 0.01 82 1017.1
20260505124324 77 289 0.9 6.1 0.00 0.03 0.01 81 1017.1
20260505123821 76 353 0.9 6.1 0.00 0.03 0.01 83 1016.9
20260505123256 76 16 0.9 3.5 0.00 0.03 0.01 83 1016.9
20260505122734 75 305 1.7 3.5 0.00 0.03 0.01 83 1016.9
20260505122500 75 319 1.7 5.2 0.00 0.03 0.01 83 1017.0
20260505121724 75 297 2.6 5.2 0.00 0.03 0.01 83 1016.8
20260505121448 75 306 1.7 5.2 0.00 0.03 0.01 83 1016.7
20260505120716 74 302 0.9 4.3 0.00 0.03 0.01 84 1016.8
20260505120147 74 336 0.9 4.3 0.00 0.03 0.01 85 1016.7
20260505115647 74 120 0.0 1.7 0.00 0.03 0.01 85 1016.7
20260505115139 73 148 0.9 4.3 0.00 0.03 0.01 85 1016.6
20260505115131 74 120 0.9 4.3 0.00 0.03 0.01 86 1016.7
20260505114129 73 127 0.0 0.9 0.00 0.03 0.01 87 1016.5
20260505113637 72 40 0.0 0.0 0.00 0.03 0.01 89 1016.4
20260505113629 72 55 0.0 0.9 0.00 0.03 0.01 88 1016.6
20260505112627 71 45 0.0 0.0 0.00 0.03 0.01 90 1016.4
20260505112124 71 126 0.0 0.0 0.00 0.03 0.01 90 1016.4
20260505111852 70 126 0.0 0.0 0.00 0.03 0.01 92 1016.3
20260505111115 70 91 0.0 0.0 0.00 0.03 0.01 92 1016.3
20260505110617 69 91 0.0 0.9 0.00 0.03 0.01 92 1016.2
20260505110111 69 103 0.9 2.6 0.00 0.03 0.01 92 1016.0
20260505101524 67 265 2.6 6.1 0.00 0.03 0.01 95 1015.7
20260505101023 66 274 0.9 6.1 0.00 0.03 0.01 95 1015.5
20260505100523 66 297 0.0 2.6 0.00 0.03 0.01 94 1015.4
20260505100516 66 79 0.0 0.0 0.00 0.03 0.01 93 1015.4
20260505100246 66 79 0.0 0.0 0.00 0.03 0.01 93 1015.4
20260505095742 66 79 0.0 3.5 0.00 0.03 0.01 94 1015.3
20260505095008 66 79 0.9 3.5 0.00 0.03 0.01 94 1015.3
20260505094507 66 124 0.9 2.6 0.00 0.03 0.01 94 1015.2
20260505093938 67 272 0.9 2.6 0.00 0.03 0.01 93 1015.1
20260505093415 67 171 0.0 1.7 0.00 0.03 0.01 93 1015.1
20260505092915 67 177 0.0 1.7 0.00 0.03 0.01 93 1015.1
20260505092359 67 208 0.0 1.7 0.00 0.03 0.01 93 1015.0
20260505091859 67 267 0.0 1.7 0.00 0.03 0.01 92 1014.9
20260505091614 67 310 0.9 2.6 0.00 0.03 0.01 92 1015.0
20260505091104 68 310 0.9 2.6 0.00 0.03 0.01 91 1014.9
20260505090334 68 42 0.0 0.9 0.00 0.03 0.01 91 1014.9
20260505085830 68 42 0.0 0.9 0.00 0.03 0.01 90 1015.0
20260505085320 68 42 0.0 2.6 0.00 0.03 0.01 90 1014.8
20260505084810 69 42 0.0 2.6 0.00 0.03 0.01 90 1014.8
20260505084254 69 42 0.0 2.6 0.00 0.03 0.01 90 1014.9
20260505083753 69 177 0.9 2.6 0.00 0.03 0.01 90 1014.8
20260505083253 69 86 0.9 4.3 0.00 0.03 0.01 89 1015.0
20260505082752 69 234 0.9 4.3 0.00 0.03 0.01 89 1014.8
20260505082738 70 316 1.7 3.5 0.01 0.03 0.01 89 1014.7
20260505081734 70 278 2.6 3.5 0.01 0.03 0.01 88 1014.6
20260505081223 70 239 1.7 3.5 0.01 0.03 0.01 88 1014.6
20260505080716 71 235 1.7 3.5 0.01 0.03 0.01 87 1014.7
20260505080152 71 256 1.7 2.6 0.01 0.03 0.01 87 1014.6
20260505075923 71 234 1.7 5.2 0.01 0.03 0.01 87 1014.5
20260505075147 71 263 2.6 5.2 0.01 0.03 0.01 86 1014.5
20260505074634 72 284 1.7 3.5 0.01 0.03 0.01 86 1014.4
20260505074110 72 253 1.7 5.2 0.01 0.03 0.01 86 1014.4
20260505073840 72 187 1.7 5.2 0.01 0.03 0.01 85 1014.4
20260505073108 72 207 0.9 4.3 0.01 0.03 0.01 84 1014.4
20260505072607 72 234 1.7 7.0 0.01 0.03 0.01 86 1014.5
20260505072107 72 147 2.6 7.0 0.00 0.02 0.00 84 1014.4
20260505071831 72 312 2.6 6.1 0.00 0.02 0.00 85 1014.5
20260505071058 72 311 1.7 6.1 0.00 0.02 0.00 85 1014.4
20260505070559 71 265 1.7 6.1 0.00 0.02 0.00 85 1014.4
20260505070058 71 312 1.7 7.0 0.00 0.02 0.00 85 1014.4
20260505065539 71 26 1.7 7.0 0.00 0.02 0.00 85 1014.3
20260505065241 72 111 1.7 8.7 0.00 0.02 0.00 85 1014.4
20260505064739 72 103 0.9 8.7 0.00 0.02 0.00 84 1014.5
20260505064007 72 338 1.7 11.3 0.00 0.02 0.00 85 1014.5
20260505063736 72 315 3.5 11.3 0.00 0.02 0.00 85 1014.5
20260505062942 72 240 2.6 7.8 0.00 0.02 0.00 84 1014.7
20260505062440 72 315 1.7 2.6 0.00 0.02 0.00 85 1014.5
20260505061917 72 214 1.7 5.2 0.00 0.02 0.00 85 1014.7
20260505061416 72 253 0.9 5.2 0.00 0.02 0.00 84 1014.6
20260505060901 72 358 0.9 6.1 0.00 0.02 0.00 84 1014.7
20260505060632 73 320 1.7 6.1 0.00 0.02 0.00 83 1014.6
20260505055859 73 200 2.6 7.8 0.00 0.02 0.00 83 1014.7
20260505055630 73 277 2.6 7.8 0.00 0.02 0.00 83 1014.6
20260505054847 73 318 1.7 6.1 0.00 0.02 0.00 83 1014.6
20260505054319 73 345 2.6 6.1 0.00 0.02 0.00 83 1014.8
20260505053815 73 281 2.6 9.6 0.00 0.02 0.00 83 1014.8
20260505053315 73 287 2.6 9.6 0.00 0.02 0.00 83 1014.8
20260505052816 72 332 1.7 7.8 0.00 0.02 0.00 84 1014.8
20260505052312 72 329 1.7 6.1 0.00 0.02 0.00 84 1014.8
20260505051746 72 231 1.7 5.2 0.00 0.02 0.00 85 1014.9
20260505051253 72 284 0.9 4.3 0.00 0.02 0.00 85 1014.8
20260505051245 72 220 1.7 5.2 0.00 0.02 0.00 85 1014.8
20260505050244 72 290 0.9 2.6 0.00 0.02 0.00 85 1014.9
20260505041056 70 237 0.9 3.5 0.00 0.02 0.00 91 1015.1
20260505040539 69 141 0.9 6.1 0.00 0.02 0.00 92 1015.0
20260505040025 69 244 0.9 6.1 0.00 0.02 0.00 93 1015.1
20260505035525 69 115 0.9 4.3 0.00 0.02 0.00 93 1015.1
20260505035400 68 204 0.9 3.5 0.00 0.02 0.00 95 1015.1
20260505035252 68 159 0.9 4.3 0.00 0.02 0.00 94 1015.0
20260505034249 68 171 0.9 3.5 0.00 0.02 0.00 95 1015.2
20260505033746 68 209 0.9 3.5 0.00 0.02 0.00 95 1015.1
20260505032948 67 172 0.9 3.5 0.00 0.02 0.00 96 1015.0
20260505032449 67 57 0.0 3.5 0.00 0.02 0.00 96 1015.0
20260505031949 67 241 0.0 2.6 0.00 0.02 0.00 96 1015.1
20260505031438 67 45 0.0 2.6 0.00 0.02 0.00 97 1015.0
20260505030913 67 10 0.9 4.3 0.00 0.02 0.00 97 1015.1
20260505030402 67 218 1.7 4.3 0.00 0.02 0.00 97 1015.0
20260505030335 67 224 0.9 3.5 0.00 0.02 0.02 98 1015.1
20260505025605 67 220 1.7 7.0 0.00 0.02 0.02 98 1015.0
20260505025051 67 208 0.9 7.0 0.00 0.02 0.02 98 1015.0
20260505024310 66 244 0.0 1.7 0.00 0.02 0.02 97 1015.1
20260505023753 66 258 0.0 1.7 0.00 0.02 0.02 97 1015.0
20260505023253 66 85 0.0 2.6 0.00 0.02 0.02 97 1015.1
20260505022753 66 297 0.0 2.6 0.00 0.02 0.02 97 1015.1
20260505022253 66 145 0.9 3.5 0.00 0.02 0.02 97 1015.1
20260505021736 66 347 0.0 5.2 0.00 0.02 0.02 97 1015.0
20260505021729 66 29 0.9 5.2 0.00 0.02 0.02 97 1015.1
20260505020715 66 320 0.0 1.7 0.00 0.02 0.02 97 1015.1
20260505020211 66 320 0.0 2.6 0.00 0.02 0.02 97 1015.1
20260505015706 66 282 0.0 2.6 0.00 0.02 0.02 97 1015.0
20260505015208 67 261 0.9 4.3 0.00 0.02 0.02 98 1014.9
20260505014651 67 121 0.9 4.3 0.00 0.02 0.02 98 1015.0
20260505014149 67 4 0.9 4.3 0.00 0.02 0.02 98 1014.9
20260505013646 67 4 1.7 4.3 0.00 0.02 0.02 98 1015.0
20260505013136 67 182 0.9 4.3 0.00 0.02 0.02 98 1014.9
20260505012906 67 158 0.0 2.6 0.00 0.02 0.02 98 1014.9
20260505012135 67 34 0.9 1.7 0.00 0.02 0.02 98 1015.0
20260505011619 66 177 0.9 4.3 0.00 0.02 0.02 98 1015.0
20260505011101 66 212 0.0 1.7 0.00 0.02 0.02 98 1014.8
20260505011049 66 244 0.0 3.5 0.00 0.02 0.02 98 1014.9
20260505010040 66 177 0.0 1.7 0.00 0.02 0.02 98 1014.9
20260505005539 66 187 0.0 1.7 0.00 0.02 0.02 97 1014.7
20260505005017 66 72 0.9 3.5 0.00 0.02 0.02 97 1014.7
20260505004515 66 97 0.9 3.5 0.00 0.02 0.02 98 1014.7
20260505004014 66 187 0.9 3.5 0.00 0.02 0.02 97 1014.6
20260505003512 66 258 0.0 1.7 0.00 0.02 0.02 97 1014.6
20260505003014 66 331 0.0 0.9 0.00 0.02 0.02 97 1014.7
20260505002456 66 346 0.0 2.6 0.00 0.02 0.02 97 1014.7
20260505001930 66 73 0.0 2.6 0.00 0.02 0.02 97 1014.7
20260505001413 66 5 0.0 0.0 0.00 0.02 0.02 97 1014.7
20260505000906 66 5 0.0 3.5 0.00 0.02 0.02 97 1014.8
20260505000634 66 5 0.9 3.5 0.00 0.02 0.02 97 1014.7
20260504235902 66 6 0.9 2.6 0.00 0.02 0.02 97 1014.6
20260504235402 66 164 0.0 1.7 0.00 0.02 0.02 97 1014.6
20260504234901 66 273 0.0 1.7 0.00 0.02 0.02 97 1014.5
20260504234344 67 273 0.0 1.7 0.00 0.02 0.02 97 1014.7
20260504233842 67 84 0.9 3.5 0.00 0.02 0.02 97 1014.8
20260504233329 66 70 0.9 3.5 0.00 0.02 0.02 97 1014.9
20260504232804 67 337 0.0 1.7 0.00 0.02 0.02 97 1014.9
20260504232533 67 1 0.0 0.9 0.00 0.02 0.02 97 1014.7
20260504231802 67 111 0.9 2.6 0.00 0.02 0.02 97 1014.6
20260504231235 67 49 0.9 3.5 0.01 0.02 0.02 97 1014.6
20260504230733 67 262 0.0 3.5 0.01 0.02 0.02 97 1014.6
20260504230229 67 97 0.0 1.7 0.01 0.02 0.02 96 1014.5
20260504225659 66 97 0.0 1.7 0.01 0.02 0.02 96 1014.6
20260504225156 67 44 0.0 0.9 0.01 0.02 0.02 96 1014.5
20260504224634 67 44 0.0 1.7 0.01 0.02 0.02 96 1014.7
20260504224134 67 44 0.0 1.7 0.01 0.02 0.02 96 1014.5
20260504223631 67 79 0.0 0.0 0.01 0.02 0.02 96 1014.4
20260504223130 67 79 0.0 0.0 0.01 0.02 0.02 96 1014.4
20260504222604 67 79 0.0 0.0 0.01 0.02 0.02 96 1014.3
20260504222034 67 79 0.0 0.0 0.01 0.02 0.02 96 1014.3
20260504221531 67 79 0.0 0.0 0.00 0.01 0.02 96 1014.2
20260504221001 67 4 0.0 0.0 0.00 0.01 0.01 96 1014.1
20260504220457 67 4 0.0 1.7 0.00 0.01 0.01 96 1014.1
20260504220203 67 4 0.9 1.7 0.00 0.01 0.01 95 1013.9
20260504215404 67 214 0.9 2.6 0.00 0.01 0.01 95 1014.0
20260504214834 67 302 1.7 3.5 0.00 0.01 0.01 95 1014.1
20260504214604 67 194 0.9 3.5 0.00 0.01 0.01 95 1014.0
20260504213815 67 24 0.9 1.7 0.00 0.01 0.01 95 1014.0
20260504213318 67 266 0.9 1.7 0.00 0.01 0.01 95 1014.0
20260504212749 67 335 0.0 1.7 0.00 0.01 0.01 94 1014.0
20260504212520 67 212 0.0 1.7 0.00 0.01 0.01 94 1014.0
20260504211718 67 146 0.9 2.6 0.00 0.01 0.01 94 1013.9
20260504211428 67 146 0.9 2.6 0.00 0.01 0.01 94 1013.9
20260504210622 67 134 0.9 2.6 0.00 0.01 0.01 94 1013.9
20260504210347 68 261 0.9 2.6 0.00 0.01 0.01 94 1013.6
20260504205615 68 291 0.0 2.6 0.00 0.01 0.01 93 1013.6
20260504205112 68 118 0.0 2.6 0.00 0.01 0.01 93 1013.6
20260504204557 68 118 0.9 3.5 0.00 0.01 0.01 93 1013.6
20260504204324 68 118 0.9 3.5 0.00 0.01 0.01 93 1013.6
20260504203822 68 347 0.0 1.7 0.00 0.01 0.01 93 1013.4
20260504203048 69 299 0.0 1.7 0.00 0.01 0.01 93 1013.3
20260504202544 69 290 0.9 1.7 0.00 0.01 0.01 93 1013.6
20260504202012 69 231 0.9 1.7 0.00 0.01 0.01 93 1013.7
20260504201508 69 218 0.0 1.7 0.00 0.01 0.01 93 1013.5
20260504201001 69 153 0.0 1.7 0.00 0.01 0.01 93 1013.7
20260504200713 69 153 0.0 0.0 0.00 0.01 0.01 92 1013.6
20260504195941 69 153 0.0 1.7 0.00 0.01 0.01 93 1013.6
20260504195442 69 153 0.0 1.7 0.00 0.01 0.01 93 1013.4
20260504194939 69 236 0.0 1.7 0.00 0.01 0.01 92 1013.4
20260504194439 69 236 0.9 1.7 0.00 0.01 0.01 92 1013.5
20260504193912 69 131 0.0 1.7 0.00 0.01 0.01 92 1013.4
20260504193346 69 131 0.0 1.7 0.00 0.01 0.01 93 1013.4
20260504192819 69 131 0.0 1.7 0.00 0.01 0.01 92 1013.4
20260504192549 69 131 0.9 1.7 0.00 0.01 0.01 92 1013.4
20260504191753 69 247 0.0 1.7 0.00 0.01 0.01 93 1013.6
20260504191230 69 247 0.9 2.6 0.00 0.01 0.01 93 1013.6
20260504190730 69 291 0.9 2.6 0.00 0.01 0.01 93 1013.5
20260504190222 69 241 0.9 2.6 0.00 0.01 0.01 92 1013.6
20260504185709 69 241 0.9 2.6 0.01 0.01 0.01 92 1013.7
20260504185206 69 248 0.0 1.7 0.01 0.01 0.01 92 1013.6
20260504184706 69 248 0.0 1.7 0.01 0.01 0.01 91 1013.7
20260504184435 69 248 0.0 1.7 0.01 0.01 0.01 91 1013.7
20260504183637 69 336 0.0 0.9 0.01 0.01 0.01 91 1013.8
20260504183112 69 323 0.9 2.6 0.01 0.01 0.01 91 1013.9
20260504182559 69 323 1.7 3.5 0.01 0.01 0.01 89 1014.0
20260504182328 69 323 1.7 3.5 0.01 0.01 0.01 88 1014.0
20260504181556 69 346 1.7 3.5 0.01 0.01 0.01 88 1014.0
20260504181057 69 13 1.7 6.1 0.01 0.01 0.01 87 1014.1
20260504180533 70 336 1.7 6.1 0.01 0.01 0.01 86 1014.1